Location: Hamilton
(37.7830°S, 175.2830°E)
Time: 08:31:05
(UTC+13:00)

ERS-1 Rocket - Pass Details

Date: 24 January 2019
Orbit: 754 x 757 km, 98.5° (Epoch: 15 October)

Event Time Altitude Azimuth Distance (km) Brightness Sun altitude
Rises 22:36:50 0° 153° (SSE) 3,243 6.5 -19.8°
Reaches altitude 10° 22:39:34 10° 139° (SE) 2,309 5.5 -20.2°
Enters shadow 22:42:49 23° 100° (E) 1,581 4.3 -20.6°
